Location: Москва
(55.7504°N, 37.6175°E)
Time: 13:51:12
(UTC+03:00)

Envisat - Visible Passes

Search period start: 18 September 2021 00:00
Search period end: 28 September 2021 00:00
Orbit: 764 x 766 km, 98.2° (Epoch: 17 September)

Date Brightness Start Highest point End Pass type
(mag) Time Alt. Az. Time Alt. Az. Time Alt. Az.
18 Sep 5.7 04:37:27 10° NE 04:41:18 21° E 04:45:09 10° SE visible
19 Sep 6.2 04:02:17 10° ENE 04:03:52 11° E 04:05:28 10° E visible
20 Sep 5.0 05:02:22 10° NNE 05:06:56 32° E 05:11:28 10° SSE visible
21 Sep 5.9 04:26:13 10° NE 04:29:39 18° E 04:33:03 10° SE visible
22 Sep 4.1 05:27:30 10° NNE 05:32:28 49° E 05:37:22 10° S visible
23 Sep 5.3 04:51:00 10° NNE 04:55:19 27° E 04:59:36 10° SSE visible
24 Sep 6.0 04:15:08 10° NE 04:17:58 15° E 04:20:47 10° ESE visible
25 Sep 4.5 05:16:04 10° NNE 05:20:53 41° E 05:25:40 10° SSE visible
26 Sep 5.6 04:39:41 10° NE 04:43:40 23° E 04:47:38 10° SE visible
27 Sep 6.1 04:04:17 10° ENE 04:06:15 12° E 04:08:14 10° ESE visible
27 Sep 3.6 05:41:16 10° NNE 05:46:21 62° ESE 05:51:23 10° S visible
